Flag for Brazil Weather past 2 weeks in Belo Horizonte, Minas Gerais, Brazil

Now
79 °F

Passing clouds.


Feels Like: 80 °F
Forecast: 70 / 85 °F
Wind: 6 mph from East

Location: Belo Horizonte Airport

Current Time: Dec 18, 2014 at 10:07:36 PM

Latest Report: Dec 18, 2014 at 9:00 PM


Visibility: N/A

Pressure: 29.92 "Hg

Humidity: 51%

Dew point: 59 °F

Location of Belo HorizonteLocation

Historic Weather in Belo Horizonte — Graph

°F

Belo Horizonte temperature yesterday

Maximum temperature yesterday: 86 °F (at 5:00 PM)
Minimum temperature yesterday: 61 °F (at 6:00 AM)
Average temperature yesterday: 75 °F

Past Weeks' High & Low Weather Summary

 TemperatureHumidityPressure
High86 °F (Dec 4, 2:00 PM)100% (Dec 17, 6:00 AM)30.15 "Hg (Dec 17, 6:00 AM)
Low61 °F (Dec 17, 6:00 AM)29% (Dec 17, 5:00 PM)29.86 "Hg (Dec 13, 5:00 PM)
Average73 °F69%30.03 "Hg
* Reported Dec 3 9:00 PM — Dec 18 9:00 PM, Belo Horizonte, Weather by CustomWeather, © 2014

Note: Actual official high and low records may vary slightly from our data, if they occured in-between our weather recording intervals... More about our weather records

Advertising

Belo Horizonte weather history for previous 24 hours

 ConditionsComfort  
Time TempWeatherWind HumidityBarometerVisibility
9:00 PM
Dec 18
79 °FPassing clouds.6 mph51%29.92 "HgN/A
8:00 PM81 °FScattered clouds.7 mph48%29.89 "HgN/A
7:00 PM82 °FPassing clouds.7 mph42%29.89 "HgN/A
6:00 PM84 °FScattered clouds.7 mph40%29.89 "HgN/A
5:00 PM84 °FScattered clouds.10 mph43%29.89 "HgN/A
4:00 PM82 °FPartly sunny.8 mph45%29.89 "HgN/A
3:00 PM82 °FPartly sunny.6 mph45%29.92 "HgN/A
2:00 PM82 °FPartly sunny.6 mph45%29.95 "HgN/A
1:00 PM81 °FScattered clouds.6 mph45%29.98 "HgN/A
12:00 PM81 °FScattered clouds.5 mph51%30.01 "HgN/A
11:00 AM77 °FScattered clouds.6 mph57%30.04 "HgN/A
10:00 AM75 °FScattered clouds.7 mph61%30.01 "HgN/A
9:00 AM73 °FScattered clouds.8 mph69%30.01 "HgN/A
8:00 AM72 °FPassing clouds.9 mph73%30.01 "HgN/A
7:00 AM68 °FPassing clouds.6 mph83%29.98 "HgN/A
6:00 AM68 °FPassing clouds.6 mph78%29.98 "HgN/A
5:00 AM70 °FPartly cloudy.7 mph69%29.95 "HgN/A
4:00 AM70 °FPartly cloudy.5 mph69%29.95 "HgN/A
3:00 AM72 °FPartly cloudy.7 mph65%29.95 "HgN/A
2:00 AM72 °FPartly cloudy.9 mph65%29.98 "HgN/A
1:00 AM73 °FPartly cloudy.7 mph65%29.98 "HgN/A
12:00 AM73 °FPartly cloudy.6 mph65%29.98 "HgN/A
11:00 PM
Dec 17
75 °FPartly cloudy.7 mph61%29.98 "HgN/A
10:00 PM77 °FPartly cloudy.9 mph57%29.98 "HgN/A
Weather by CustomWeather, © 2014

See weather overviewHow to use our weather pages